Burlington, CO

3:07 AM MDT on June 27, 2017 (GMT -0600)
Kit Carson County

Weather History for KITR - November, 2012

Change the Weather History Date:

Friday, November 9, 2012

  Actual Average Record
Temperature  
Mean Temperature 49 °F 41 °F  
Max Temperature 71 °F 56 °F 78 °F (1927)
Min Temperature 27 °F 27 °F 12 °F (1950)
Degree Days  
Heating Degree Days 17    
Moisture  
Dew Point 30 °F    
Average Humidity 56    
Maximum Humidity 85    
Minimum Humidity 24    
Precipitation  
Precipitation 0.00 in 0.03 in 0.60 in (1919)
Month to date precipitation 0.00 0.28  
Year to date precipitation 10.56 16.72  
Sea Level Pressure  
Sea Level Pressure 29.65 in    
Wind  
Wind Speed 9 mph (SE)    
Max Wind Speed 20 mph    
Max Gust Speed 24 mph    
Visibility 10 miles    
Events      
T = Trace of Precipitation, MM = Missing Value Source: NWS Daily Summary

Daily Weather History Graph

Daily Weather History Graph

Search for Another Location

Airport or City:

Trip Planner

Search our weather history database for the weather conditions in past years. The results will help you decide how hot, cold, wet, or windy it might be!

Date:

Astronomy

Nov. 09, 2012 Rise Set
Actual Time 6:26 AM MST 4:39 PM MST
Civil Twilight 5:58 AM MST 5:07 PM MST
Nautical Twilight 5:26 AM MST 5:39 PM MST
Astronomical Twilight 4:54 AM MST 6:10 PM MST
Moon 1:29 AM MST (11/9) 1:52 PM MST (11/9)
Length of Visible Light 11h 09m
Length of Day
10h 12m
Waning Crescent, 22% of the Moon is Illuminated
Nov 9
Waning Crescent
Nov 13
New
Nov 20
First Quarter
Nov 28
Full
Dec 6
Last Quarter

Hourly Weather History & Observations

Time (MST) Temp. Windchill Dew Point Humidity Pressure Visibility Wind Dir Wind Speed Gust Speed Precip Events Conditions
12:53 AM 37.9 °F 30.9 °F 28.0 °F 68% 29.73 in 10.0 mi South 10.4 mph - N/A   Clear
1:53 AM 37.0 °F - 28.0 °F 70% 29.73 in 10.0 mi Calm Calm - N/A   Clear
2:53 AM 34.0 °F 27.2 °F 27.0 °F 75% 29.71 in 10.0 mi South 8.1 mph - N/A   Clear
3:53 AM 32.0 °F 27.5 °F 26.1 °F 79% 29.73 in 10.0 mi NNE 4.6 mph - N/A   Clear
4:53 AM 30.0 °F 24.1 °F 25.0 °F 82% 29.76 in 10.0 mi NE 5.8 mph - N/A   Clear
5:53 AM 28.0 °F 21.7 °F 24.1 °F 85% 29.78 in 10.0 mi NE 5.8 mph - N/A   Clear
6:53 AM 28.9 °F 22.8 °F 25.0 °F 85% 29.78 in 10.0 mi NE 5.8 mph - N/A   Clear
7:53 AM 36.0 °F 29.0 °F 28.9 °F 76% 29.76 in 10.0 mi East 9.2 mph - N/A   Clear
8:53 AM 43.0 °F 38.8 °F 32.0 °F 65% 29.72 in 10.0 mi East 6.9 mph - N/A   Clear
9:53 AM 48.9 °F - 34.0 °F 56% 29.70 in 10.0 mi SE 8.1 mph - N/A   Clear
10:53 AM 53.1 °F - 34.0 °F 48% 29.68 in 10.0 mi SE 8.1 mph - N/A   Clear
11:53 AM 60.1 °F - 34.0 °F 38% 29.62 in 10.0 mi SSE 9.2 mph - N/A   Clear
12:53 PM 64.0 °F - 33.1 °F 31% 29.58 in 10.0 mi SSE 10.4 mph - N/A   Clear
1:53 PM 66.0 °F - 33.1 °F 29% 29.56 in 10.0 mi SE 16.1 mph - N/A   Clear
2:53 PM 68.0 °F - 34.0 °F 28% 29.55 in 10.0 mi SE 18.4 mph 24.2 mph N/A   Clear
3:53 PM 68.0 °F - 30.0 °F 24% 29.55 in 10.0 mi SSE 13.8 mph - N/A   Clear
4:53 PM 57.0 °F - 33.1 °F 40% 29.57 in 10.0 mi SE 13.8 mph - N/A   Clear
5:53 PM 50.0 °F - 33.1 °F 52% 29.61 in 10.0 mi SSE 16.1 mph - N/A   Clear
6:53 PM 46.9 °F - 33.1 °F 59% 29.62 in 10.0 mi South 15.0 mph - N/A   Clear
7:53 PM 48.9 °F - 32.0 °F 52% 29.59 in 10.0 mi SSE 19.6 mph - N/A   Clear
8:53 PM 43.0 °F 36.8 °F 30.0 °F 60% 29.59 in 10.0 mi South 11.5 mph - N/A   Clear
9:53 PM 52.0 °F - 30.0 °F 43% 29.54 in 10.0 mi SW 17.3 mph - N/A   Clear
10:53 PM 51.1 °F - 30.9 °F 46% 29.53 in 10.0 mi SW 12.7 mph - N/A   Clear
11:53 PM 52.0 °F - 32.0 °F 47% 29.50 in 10.0 mi SW 17.3 mph - N/A   Clear